Content
SEND FEEDBACK

Daily
Averages
Monthly
Summary
United States of America

HOOPESTON, ILLINOIS


Home > North America > United States > Illinois
Elevation: 711 feet     Latitude: 40 28N     Longitude: 087 40W

WEATHER
 
SELECT A DAY
Number of Records: 322,212;   Date Range: 2/13/95 - 9/29/14
 
SHARE

PRINT THIS DATA

[ ← Previous Day ]
WEATHER ALMANAC - JANUARY 31, 2013
[ Next Day → ]
[ °C ]   °F
Weather ElementAverageHighLow
Temperature19.5 °F24.8 °F (12:35 am)8.2 °F (11:35 pm)
Dewpoint12.6 °F20.3 °F (7:35 am) (7:00 pm)
Humidity74.8 %90 % (7:35 am)66 % (6:15 pm)
Barometer29.92 in30.19 in (11:55 pm)29.71 in (12:35 am)
Wind Speed18.6 mph29.9 mph (1:55 am)
Wind Gust39.1 mph (1:35 am)
Weather ElementAverage
Visibility9 mi
Wind DirectionWNW (279 °)

Weather ElementTotal
Precipitation---
Heating Degree Days48.5 (Base 65)
Averaged from 71 records on January 31, 2013
WEATHER CONDITIONS BREAKOUT
WIND DIRECTION BREAKOUT
WEATHER BY HOUR - JANUARY 31, 2013
[ °C ]   °F
Local TimeTemperatureDewpointHumidityBarometerVisibilityWind DirectionWind SpeedGust SpeedPrecipitationEventsConditions
12:35 AM24.8 °F19.4 °F80 %29.71 in10.0 miWest (280°)20.7 mph31.1 mphOvercast
12:55 AM24.3 °F18.5 °F79 %29.72 in10.0 miWest (270°)25.3 mph35.7 mphOvercast
1:15 AM24.1 °F18.1 °F78 %29.73 in10.0 miWest (260°)24.2 mph35.7 mphSnowLight Snow
1:35 AM23.0 °F16.5 °F76 %29.73 in10.0 miWest (260°)25.3 mph39.1 mphSnowLight Snow
1:55 AM22.3 °F16.0 °F77 %29.74 in10.0 miWest (270°)29.9 mph39.1 mphSnowLight Snow
2:15 AM22.1 °F15.1 °F74 %29.75 in10.0 miWest (270°)29.9 mphOvercast
2:35 AM21.2 °F14.2 °F74 %29.77 in10.0 miWNW (290°)18.4 mph27.6 mphOvercast
2:55 AM21.0 °F14.5 °F76 %29.77 in10.0 miWNW (290°)15.0 mph23.0 mphMostly Cloudy
3:15 AM20.8 °F15.1 °F78 %29.77 in7.0 miWest (270°)24.2 mph33.4 mphSnowLight Snow
3:35 AM20.8 °F14.7 °F77 %29.78 in10.0 miWest (270°)24.2 mph32.2 mphSnowLight Snow
3:55 AM20.3 °F13.5 °F75 %29.78 in10.0 miWest (270°)24.2 mph33.4 mphSnowLight Snow
4:15 AM21.0 °F14.5 °F76 %29.79 in10.0 miWest (280°)16.1 mph26.5 mphSnowLight Snow
4:35 AM21.4 °F15.4 °F78 %29.79 in10.0 miWest (280°)13.8 mph25.3 mphSnowLight Snow
4:55 AM21.9 °F16.7 °F80 %29.79 in10.0 miWest (260°)15.0 mph24.2 mphOvercast
5:15 AM22.5 °F17.2 °F80 %29.79 in10.0 miWest (260°)18.4 mph21.9 mphSnowLight Snow
5:35 AM22.5 °F17.4 °F81 %29.79 in10.0 miWest (260°)17.3 mph24.2 mphSnowLight Snow
5:55 AM23.0 °F18.5 °F83 %29.80 in7.0 miWest (260°)17.3 mph24.2 mphSnowLight Snow
6:15 AM22.8 °F18.9 °F85 %29.80 in7.0 miWest (260°)13.8 mph19.6 mphSnowLight Snow
6:35 AM22.8 °F18.9 °F85 %29.80 in10.0 miWSW (250°)11.5 mphSnowLight Snow
6:55 AM22.5 °F19.4 °F88 %29.80 in4.0 miWSW (250°)9.2 mphSnowLight Snow
7:15 AM22.8 °F19.4 °F87 %29.81 in2.0 miWest (260°)9.2 mphSnowLight Snow
7:35 AM22.8 °F20.3 °F90 %29.82 in0.8 miWest (280°)6.9 mphSnowLight Snow
7:55 AM23.0 °F20.3 °F89 %29.83 in7.0 miWest (280°)9.2 mphSnowLight Snow
8:15 AM23.9 °F19.4 °F83 %29.84 in10.0 miWest (280°)17.3 mph21.9 mphOvercast
8:35 AM23.9 °F19.0 °F82 %29.85 in10.0 miWest (270°)13.8 mph24.2 mphOvercast
8:55 AM24.4 °F19.0 °F80 %29.85 in10.0 miWest (270°)17.3 mph21.9 mphMostly Cloudy
9:15 AM24.6 °F18.7 °F78 %29.86 in10.0 miWNW (290°)20.7 mph26.5 mphMostly Cloudy
9:35 AM24.1 °F17.1 °F75 %29.87 in10.0 miWest (280°)19.6 mph28.8 mphOvercast
9:55 AM23.5 °F16.0 °F73 %29.88 in10.0 miWest (270°)17.3 mph28.8 mphMostly Cloudy
10:15 AM23.4 °F16.2 °F74 %29.90 in10.0 miWest (280°)17.3 mphMostly Cloudy
10:35 AM22.8 °F15.4 °F73 %29.90 in10.0 miWest (270°)23.0 mphMostly Cloudy
10:55 AM23.0 °F15.6 °F73 %29.91 in10.0 miWest (270°)18.4 mph26.5 mphScattered Clouds
11:15 AM23.5 °F15.6 °F72 %29.91 in10.0 miWest (260°)19.6 mph35.7 mphMostly Cloudy
11:35 AM23.5 °F16.3 °F74 %29.90 in10.0 miWest (260°)23.0 mph27.6 mphSnowLight Snow
11:55 AM23.0 °F15.8 °F74 %29.90 in10.0 miWest (280°)21.9 mph26.5 mphSnowLight Snow
12:15 PM22.8 °F15.6 °F74 %29.90 in10.0 miWest (270°)17.3 mph28.8 mphSnowLight Snow
12:35 PM23.0 °F16.5 °F76 %29.90 in7.0 miWest (270°)18.4 mph24.2 mphSnowLight Snow
12:55 PM23.9 °F17.2 °F76 %29.90 in7.0 miWest (280°)13.8 mph27.6 mphSnowLight Snow
1:15 PM23.9 °F16.0 °F72 %29.89 in10.0 miWest (270°)17.3 mph24.2 mphOvercast
1:35 PM23.9 °F15.1 °F69 %29.90 in10.0 miWest (280°)19.6 mph25.3 mphOvercast
1:55 PM23.9 °F15.6 °F71 %29.90 in10.0 miWest (280°)19.6 mph28.8 mphOvercast
2:15 PM23.5 °F14.7 °F69 %29.90 in10.0 miWest (280°)23.0 mph29.9 mphOvercast
2:35 PM23.7 °F14.4 °F67 %29.90 in10.0 miWNW (290°)18.4 mph28.8 mphMostly Cloudy
2:55 PM23.4 °F14.2 °F68 %29.90 in10.0 miWest (270°)24.2 mph29.9 mphMostly Cloudy
3:15 PM21.7 °F12.4 °F67 %29.92 in10.0 miWest (280°)21.9 mph29.9 mphMostly Cloudy
3:35 PM21.2 °F12.2 °F68 %29.93 in10.0 miWNW (290°)16.1 mph26.5 mphMostly Cloudy
3:55 PM20.7 °F11.1 °F67 %29.94 in10.0 miWest (280°)16.1 mph25.3 mphOvercast
4:15 PM20.3 °F11.5 °F69 %29.95 in10.0 miWNW (290°)18.4 mph25.3 mphOvercast
4:35 PM19.4 °F11.3 °F71 %29.96 in10.0 miWest (280°)19.6 mph32.2 mphSnowLight Snow
4:55 PM18.3 °F12.6 °F78 %29.97 in2.0 miWest (280°)17.3 mph26.5 mphSnowLight Snow
5:15 PM17.8 °F11.7 °F77 %29.99 in7.0 miWNW (290°)16.1 mphSnowLight Snow
5:35 PM16.5 °F10.6 °F77 %30.00 in7.0 miWNW (290°)18.4 mph25.3 mphOvercast
5:55 PM16.0 °F9.0 °F74 %30.01 in10.0 miWNW (290°)20.7 mph26.5 mphOvercast
6:15 PM15.6 °F6.1 °F66 %30.02 in10.0 miWNW (290°)17.3 mph28.8 mphOvercast
6:35 PM14.9 °F8.4 °F76 %30.03 in5.0 miWNW (290°)19.6 mph23.0 mphSnowLight Snow
6:55 PM14.5 °F6.8 °F71 %30.03 in10.0 miWest (280°)17.3 mph24.2 mphMostly Cloudy
7:15 PM14.2 °F7.0 °F73 %30.04 in7.0 miWNW (290°)17.3 mph26.5 mphSnowLight Snow
7:35 PM13.1 °F4.1 °F67 %30.06 in10.0 miWNW (300°)21.9 mph27.6 mphMostly Cloudy
7:55 PM12.2 °F3.2 °F67 %30.07 in10.0 miWNW (300°)16.1 mph29.9 mphScattered Clouds
8:15 PM11.8 °F3.2 °F68 %30.08 in10.0 miWNW (300°)17.3 mph31.1 mphClear
8:35 PM11.3 °F3.4 °F70 %30.09 in10.0 miWNW (300°)21.9 mph27.6 mphScattered Clouds
8:55 PM10.9 °F3.0 °F70 %30.11 in10.0 miWNW (290°)19.6 mph29.9 mphMostly Cloudy
9:15 PM10.4 °F4.6 °F78 %30.12 in5.0 miWNW (290°)16.1 mph28.8 mphSnowLight Snow
9:35 PM10.2 °F1.8 °F69 %30.13 in10.0 miWNW (290°)17.3 mph27.6 mphMostly Cloudy
9:55 PM9.9 °F1.8 °F70 %30.13 in10.0 miWNW (300°)23.0 mph29.9 mphScattered Clouds
10:15 PM9.5 °F1.8 °F71 %30.14 in10.0 miWNW (300°)19.6 mph28.8 mphScattered Clouds
10:35 PM9.1 °F0.7 °F69 %30.15 in10.0 miWNW (290°)21.9 mph27.6 mphScattered Clouds
10:55 PM9.3 °F2.3 °F73 %30.16 in10.0 miWNW (290°)15.0 mph20.7 mphMostly Cloudy
11:15 PM8.4 °F0.0 °F68 %30.16 in10.0 miWNW (300°)19.6 mph28.8 mphScattered Clouds
11:35 PM8.2 °F0.3 °F70 %30.18 in10.0 miWNW (300°)20.7 mph26.5 mphScattered Clouds
11:55 PM8.2 °F0.7 °F71 %30.19 in10.0 miWNW (290°)17.3 mph25.3 mphScattered Clouds
Hourly data recorded from KDNV, located miles away from Hoopeston, Illinois







STORIES FROM OUR PARTNERS